Location: ????
(41.9842°N, 44.1158°E)
Time: 01:17:11
(UTC+00:00)

Daily predictions for brighter satellites

Satellite Brightness Start Highest point End
(mag) Time Altitude Azimuth Time Altitude Azimuth Time Altitude Azimuth
SeaSat 1 3.8 00:00:05 10° NE 00:04:31 32° ESE 00:08:09 14° SSE
Cosmos 1892 Rocket 3.9 00:03:54 10° NNW 00:08:10 45° W 00:09:01 40° SW
Cosmos 1461 3.3 00:10:40 38° WSW 00:12:02 56° NW 00:16:31 10° NNE
Cosmos 2082 4.4 00:11:37 27° WSW 00:13:55 40° WNW 00:19:12 10° N
CZ-2D R/B 3.3 00:11:51 10° NNE 00:15:55 82° ESE 00:17:52 29° S
CZ-2C R/B 3.6 00:12:59 10° NNE 00:16:46 48° E 00:19:22 18° SSE
ATLAS CENTAUR R/B 4.2 00:16:57 10° SE 00:18:09 11° ESE 00:19:21 10° E
Cosmos 1340 Rocket 3.0 00:18:42 38° SW 00:19:54 54° WNW 00:23:50 10° N
Cosmos 2112 Rocket 4.1 00:17:22 10° NNW 00:22:25 50° WSW 00:26:24 16° S
Meteor 1-24 Rocket 4.4 00:20:16 10° NNW 00:25:02 31° W 00:26:47 26° SW
NOSS 2-3 (E) 3.6 00:23:06 29° SSW 00:25:14 74° ESE 00:30:02 10° NE
ERS-2 3.4 00:22:19 10° SE 00:25:45 42° ENE 00:29:13 10° N
Cosmos 1953 2.3 00:23:37 22° S 00:26:06 82° E 00:30:09 10° N
SL-16 R/B 2.7 00:21:51 10° NW 00:27:04 38° WSW 00:30:51 17° SSW
SL-4 R/B 1.4 00:24:04 10° NW 00:27:29 86° NE 00:30:54 10° SE
SL-16 R/B 4.1 00:28:37 15° W 00:28:56 15° W 00:32:17 10° WNW
Cosmos 1937 Rocket 3.7 00:26:45 26° SW 00:29:41 59° WNW 00:34:58 10° NNE
USA 267 3.3 00:24:40 10° SE 00:31:13 87° NE 00:37:48 10° NW
Cosmos 1726 2.0 00:29:36 28° SSW 00:31:27 73° W 00:35:08 10° N
Cosmos 1908 4.4 00:28:47 10° SSE 00:32:27 41° E 00:36:10 10° NNE
NOSS 3-1 (C) 3.5 00:30:01 24° WSW 00:33:17 59° NW 00:39:31 10° NNE
Cosmos 1898 Rocket 4.2 00:31:24 24° WSW 00:34:01 39° WNW 00:38:57 10° N
ARIANE 5 R/B 2.9 00:29:28 10° N 00:34:30 49° WNW 00:37:43 21° SW
H-2A R/B 2.1 00:31:02 10° SSE 00:35:09 75° ENE 00:39:16 10° N
CZ-2D R/B 4.2 00:33:24 10° NNW 00:35:39 13° WNW 00:37:55 10° W
IDEFIX/ARIANE 42P 2.5 00:31:51 10° N 00:37:02 72° WNW 00:41:06 17° SSW
BREEZE-M TANK 3.3 00:36:21 10° WNW 00:39:53 83° SSW 00:51:02 10° ESE
Cosmos 1680 Rocket 4.3 00:35:35 10° NW 00:40:04 29° W 00:42:46 19° SW
Cosmos 1553 Rocket 4.3 00:37:37 10° S 00:43:36 66° E 00:49:37 10° NNE
Cosmos 1607 4.5 00:37:59 10° NW 00:43:50 37° WSW 00:49:40 10° S
ADEOS II 3.5 00:40:45 10° NNW 00:44:46 23° WNW 00:47:28 16° WSW
Cosmos 2263 Rocket 2.1 00:42:10 16° SSW 00:46:39 83° WNW 00:52:15 10° NNE
NOSS 2-3 (D) 3.6 00:46:11 21° SW 00:49:01 73° NW 00:53:52 10° NNE
Cosmos 2297 Rocket 4.3 00:47:02 10° WNW 00:49:23 13° NW 00:51:46 10° NNW
CZ-4C R/B 2.7 00:48:08 10° S 00:51:18 66° WSW 00:54:33 10° NNW
Meteor 2-10 4.4 00:48:18 15° SSW 00:52:36 53° WNW 00:58:05 10° N
Cosmos 372 Rocket 4.0 00:48:15 14° SSW 00:52:44 79° WNW 00:58:00 10° NNE
COSMOS 2441 4.3 00:50:07 10° N 00:54:55 80° WNW 00:59:44 10° SSW
CZ-4B R/B 3.5 00:52:28 10° SE 00:55:23 29° ENE 00:58:15 10° N
Cosmos 1703 3.3 00:56:44 10° N 01:00:43 85° E 01:04:40 10° S
OAO 3 Rocket 4.4 01:00:01 14° SW 01:03:25 30° SSE 01:07:41 10° ESE
Cosmos 1125 Rocket 4.1 01:00:11 10° S 01:05:17 57° ESE 01:10:26 10° NNE
Cosmos 1602 Rocket 4.0 01:02:02 10° NNW 01:06:08 41° W 01:10:12 10° SSW
USA 229 DEB 4.2 01:01:07 14° WSW 01:06:36 47° NW 01:13:13 10° NNE
USA 229 4.2 01:01:13 14° WSW 01:06:41 47° NW 01:13:17 10° NNE
CZ-2C R/B 2.5 01:02:07 10° NNE 01:06:42 71° ESE 01:11:18 10° S
Cosmos 1603 3.7 01:01:04 10° NNW 01:06:47 68° WSW 01:12:25 10° SSE
Cosmos 1606 Rocket 3.8 01:02:56 10° S 01:07:22 74° E 01:11:51 10° NNE
Meteor 2-16 Rocket 4.5 01:02:43 10° NNW 01:08:49 66° W 01:14:54 10° S
DEBRIS 1.5 01:07:51 15° WSW 01:09:48 89° SSE 01:11:51 10° ENE
S3M 4.3 01:04:06 10° S 01:10:27 78° E 01:16:52 10° N
Cosmos 1844 Rocket 4.3 01:08:34 10° SSE 01:13:31 34° ESE 01:18:28 10° NE
Cosmos 1300 4.1 01:10:32 10° SSE 01:14:07 40° E 01:17:42 10° NNE
NOSS 2-3 (C) 4.4 01:13:41 12° WSW 01:17:27 40° NW 01:22:09 10° NNE
SL-08 R/B 4.5 01:11:18 10° NNW 01:17:29 72° W 01:23:41 10° S
NOSS 3-1 (A) 3.8 01:12:40 11° WSW 01:17:40 48° NW 01:23:49 10° NNE
ATLAS 3B CENTAUR R/B 3.9 01:14:21 10° WSW 01:21:10 21° SSW 01:25:12 10° SSE
Cosmos 2298 Rocket 4.2 01:17:09 10° SSW 01:22:23 60° WNW 01:27:41 10° NNE
ADEOS Rocket 4.2 01:15:08 10° SSE 01:22:31 64° ENE 01:30:12 10° N
SAR-Lupe-1 4.4 01:20:08 10° SSE 01:23:41 72° ENE 01:27:17 10° N
Cosmos 1484 Rocket 4.3 01:20:31 10° NNE 01:23:57 35° E 01:27:23 10° SSE
Cosmos 1726 Rocket 3.6 01:20:57 10° S 01:25:24 89° W 01:29:54 10° N
Cosmos 2084 4.0 01:22:50 10° SSW 01:27:08 60° ESE 01:31:31 10° NE
MSX 4.5 01:25:21 10° N 01:30:37 38° WNW 01:35:54 10° SW
ALOS 3.5 01:26:17 10° NNE 01:30:46 44° E 01:35:13 10° S
Cosmos 1943 3.4 01:28:38 10° NW 01:34:00 48° WSW 01:39:21 10° S
